SUR4097 SARI-SACO

Flight info

Callsign SUR4097
Flight time 1h 50m
Altitude 38000
Route ALDOS2G ALDOS UL324 DOKBA UT667 PAMEX UM400 GEMOP GEMOP1U
Aircraft A20N/M-SDE2E3FGHIRWXY/LB1

Departure

Time 2026-04-26 21:13
Airport Cataratas Del Iguazú International Airport (SARI)

Arrival

Time 2026-04-26 23:04
Airport Ingeniero Aeronáutico Ambrosio L.V. Taravella International Airport (SACO)
Time Latitude Longitude Altitude Speed Heading
2026-04-26 21:13 -25.78365 -54.58633 7216 ft 276 kts 198°
2026-04-26 21:13 -25.80268 -54.59134 8060 ft 280 kts 197°
2026-04-26 21:14 -25.82176 -54.59613 8895 ft 282 kts 197°
2026-04-26 21:14 -25.84079 -54.60081 9713 ft 284 kts 197°
2026-04-26 21:14 -25.86018 -54.60556 10481 ft 287 kts 197°
2026-04-26 21:14 -25.87971 -54.61022 11183 ft 292 kts 197°
2026-04-26 21:15 -25.90023 -54.61489 11568 ft 308 kts 196°
2026-04-26 21:15 -25.92193 -54.61975 11886 ft 326 kts 196°
2026-04-26 21:15 -25.94504 -54.62493 12213 ft 343 kts 196°
2026-04-26 21:15 -25.96853 -54.63016 12745 ft 351 kts 196°
2026-04-26 21:16 -25.99276 -54.63552 13468 ft 353 kts 196°
2026-04-26 21:16 -26.01713 -54.64095 14111 ft 356 kts 196°
2026-04-26 21:16 -26.04152 -54.64639 14667 ft 362 kts 196°
2026-04-26 21:16 -26.06650 -54.65199 15199 ft 368 kts 197°
2026-04-26 21:17 -26.09206 -54.65772 15715 ft 374 kts 197°
2026-04-26 21:17 -26.11787 -54.66351 16227 ft 379 kts 197°
2026-04-26 21:17 -26.14420 -54.66942 16719 ft 385 kts 197°
2026-04-26 21:17 -26.17073 -54.67536 17205 ft 390 kts 197°
2026-04-26 21:18 -26.19754 -54.68139 17691 ft 395 kts 197°
2026-04-26 21:18 -26.22442 -54.68797 18185 ft 397 kts 200°
2026-04-26 21:18 -26.25119 -54.69641 18652 ft 398 kts 204°
2026-04-26 21:18 -26.27754 -54.70602 19158 ft 400 kts 205°
2026-04-26 21:19 -26.30404 -54.71591 19642 ft 403 kts 205°
2026-04-26 21:19 -26.33067 -54.72584 20138 ft 405 kts 205°
2026-04-26 21:19 -26.35777 -54.73593 20611 ft 408 kts 206°
2026-04-26 21:19 -26.38484 -54.74603 21112 ft 410 kts 206°
2026-04-26 21:20 -26.41217 -54.75624 21568 ft 413 kts 206°
2026-04-26 21:20 -26.43968 -54.76646 22003 ft 417 kts 206°
2026-04-26 21:20 -26.46705 -54.77661 22498 ft 418 kts 207°
2026-04-26 21:20 -26.49461 -54.78692 22925 ft 421 kts 207°
2026-04-26 21:21 -26.52286 -54.79746 23391 ft 424 kts 207°
2026-04-26 21:21 -26.55086 -54.80885 23849 ft 422 kts 212°
2026-04-26 21:21 -26.57711 -54.82231 24319 ft 419 kts 217°
2026-04-26 21:21 -26.60249 -54.83837 24829 ft 413 kts 221°
2026-04-26 21:22 -26.62651 -54.85566 25295 ft 414 kts 223°
2026-04-26 21:22 -26.65084 -54.87360 25686 ft 417 kts 223°
2026-04-26 21:22 -26.67513 -54.89154 26145 ft 418 kts 223°
2026-04-26 21:23 -26.72413 -54.92768 26933 ft 424 kts 223°
2026-04-26 21:23 -26.74875 -54.94582 27380 ft 424 kts 224°
2026-04-26 21:23 -26.77372 -54.96420 27740 ft 427 kts 224°
2026-04-26 21:23 -26.79841 -54.98238 28140 ft 428 kts 224°
2026-04-26 21:24 -26.82349 -55.00080 28657 ft 426 kts 224°
2026-04-26 21:24 -26.84815 -55.01895 29177 ft 423 kts 224°
2026-04-26 21:24 -26.87271 -55.03704 29687 ft 421 kts 224°
2026-04-26 21:24 -26.89732 -55.05519 30185 ft 418 kts 224°
2026-04-26 21:25 -26.92135 -55.07295 30616 ft 417 kts 225°
2026-04-26 21:25 -26.94575 -55.09100 30984 ft 417 kts 225°
2026-04-26 21:25 -26.96987 -55.10883 31354 ft 416 kts 225°
2026-04-26 21:25 -26.99402 -55.12669 31726 ft 415 kts 224°
2026-04-26 21:26 -27.01820 -55.14460 32111 ft 414 kts 224°
2026-04-26 21:26 -27.04268 -55.16273 32410 ft 414 kts 224°
2026-04-26 21:26 -27.06751 -55.18112 32679 ft 415 kts 224°
2026-04-26 21:26 -27.09150 -55.19888 32980 ft 414 kts 224°
2026-04-26 21:27 -27.11567 -55.21679 33275 ft 414 kts 224°
2026-04-26 21:27 -27.13969 -55.23457 33592 ft 413 kts 224°
2026-04-26 21:27 -27.16373 -55.25239 33938 ft 411 kts 224°
2026-04-26 21:27 -27.18776 -55.27021 34251 ft 410 kts 224°
2026-04-26 21:28 -27.21173 -55.28801 34536 ft 409 kts 224°
2026-04-26 21:28 -27.23525 -55.30548 34830 ft 408 kts 225°
2026-04-26 21:28 -27.25888 -55.32305 35135 ft 406 kts 225°
2026-04-26 21:28 -27.28261 -55.34067 35374 ft 406 kts 225°
2026-04-26 21:29 -27.30611 -55.35818 35668 ft 404 kts 225°
2026-04-26 21:29 -27.32966 -55.37571 35915 ft 404 kts 225°
2026-04-26 21:29 -27.35305 -55.39313 36138 ft 403 kts 225°
2026-04-26 21:29 -27.37652 -55.41064 36332 ft 403 kts 225°
2026-04-26 21:30 -27.40005 -55.42822 36462 ft 404 kts 225°
2026-04-26 21:30 -27.42347 -55.44569 36591 ft 405 kts 225°
2026-04-26 21:30 -27.44719 -55.46338 36747 ft 405 kts 225°
2026-04-26 21:30 -27.46269 -55.47494 36851 ft 405 kts 225°
2026-04-26 21:31 -27.49415 -55.49845 37039 ft 405 kts 226°
2026-04-26 21:31 -27.51776 -55.51613 37168 ft 405 kts 225°
2026-04-26 21:31 -27.54126 -55.53371 37272 ft 406 kts 225°
2026-04-26 21:31 -27.56482 -55.55134 37374 ft 407 kts 225°
2026-04-26 21:32 -27.58856 -55.56911 37493 ft 407 kts 225°
2026-04-26 21:32 -27.61196 -55.58664 37588 ft 407 kts 225°
2026-04-26 21:32 -27.65907 -55.62196 37724 ft 408 kts 226°
2026-04-26 21:33 -27.70681 -55.65779 37928 ft 408 kts 226°
2026-04-26 21:33 -27.75388 -55.69316 37931 ft 408 kts 226°
2026-04-26 21:34 -27.80142 -55.72894 37932 ft 408 kts 226°
2026-04-26 21:34 -27.84845 -55.76432 37928 ft 408 kts 226°
2026-04-26 21:35 -27.89599 -55.80013 37926 ft 407 kts 226°
2026-04-26 21:35 -27.94297 -55.83555 37923 ft 407 kts 227°
2026-04-26 21:36 -27.98231 -55.86528 37923 ft 407 kts 227°
2026-04-26 21:36 -28.03735 -55.90690 37920 ft 407 kts 227°
2026-04-26 21:37 -28.08421 -55.94234 37926 ft 406 kts 227°
2026-04-26 21:37 -28.13162 -55.97825 37938 ft 405 kts 227°
2026-04-26 21:38 -28.17887 -56.01411 37937 ft 406 kts 227°
2026-04-26 21:38 -28.22582 -56.04973 37939 ft 405 kts 227°
2026-04-26 21:39 -28.27289 -56.08553 37939 ft 406 kts 227°
2026-04-26 21:39 -28.31986 -56.12125 37938 ft 405 kts 227°
2026-04-26 21:40 -28.36602 -56.15765 37931 ft 396 kts 233°
2026-04-26 21:40 -28.38553 -56.17901 37937 ft 385 kts 240°
2026-04-26 21:40 -28.40210 -56.20272 37939 ft 375 kts 245°
2026-04-26 21:41 -28.43044 -56.24903 37939 ft 375 kts 246°
2026-04-26 21:41 -28.46009 -56.29784 37940 ft 375 kts 246°
2026-04-26 21:42 -28.49006 -56.34720 37935 ft 375 kts 246°
2026-04-26 21:42 -28.51965 -56.39603 37938 ft 374 kts 246°
2026-04-26 21:43 -28.54932 -56.44500 37936 ft 374 kts 246°
2026-04-26 21:43 -28.57862 -56.49343 37935 ft 373 kts 246°
2026-04-26 21:44 -28.60798 -56.54204 37940 ft 372 kts 246°
2026-04-26 21:44 -28.63744 -56.59084 37940 ft 373 kts 246°
2026-04-26 21:45 -28.66661 -56.63924 37945 ft 371 kts 246°
2026-04-26 21:45 -28.69610 -56.68823 37949 ft 370 kts 246°
2026-04-26 21:46 -28.72531 -56.73678 37945 ft 371 kts 246°
2026-04-26 21:46 -28.75444 -56.78522 37945 ft 370 kts 246°
2026-04-26 21:47 -28.78371 -56.83400 37946 ft 370 kts 246°
2026-04-26 21:47 -28.81270 -56.88239 37949 ft 368 kts 246°
2026-04-26 21:48 -28.84146 -56.93038 37951 ft 368 kts 246°
2026-04-26 21:48 -28.87039 -56.97879 37953 ft 368 kts 246°
2026-04-26 21:49 -28.89926 -57.02710 37954 ft 368 kts 246°
2026-04-26 21:49 -28.92794 -57.07518 37953 ft 365 kts 246°
2026-04-26 21:50 -28.95177 -57.11513 37957 ft 366 kts 246°
2026-04-26 21:50 -28.98517 -57.17123 37959 ft 366 kts 246°
2026-04-26 21:51 -29.01393 -57.21965 37954 ft 366 kts 246°
2026-04-26 21:51 -29.04242 -57.26762 37957 ft 366 kts 247°
2026-04-26 21:52 -29.07107 -57.31591 37958 ft 365 kts 246°
2026-04-26 21:52 -29.09952 -57.36389 37965 ft 364 kts 247°
2026-04-26 21:53 -29.12811 -57.41221 37962 ft 365 kts 246°
2026-04-26 21:53 -29.15652 -57.46029 37964 ft 365 kts 246°
2026-04-26 21:54 -29.18524 -57.50890 37967 ft 364 kts 246°
2026-04-26 21:54 -29.21360 -57.55701 37968 ft 364 kts 246°
2026-04-26 21:55 -29.23992 -57.60589 37972 ft 357 kts 251°
2026-04-26 21:55 -29.26171 -57.65651 37977 ft 353 kts 255°
2026-04-26 21:56 -29.28121 -57.70822 37977 ft 353 kts 255°
2026-04-26 21:56 -29.30053 -57.75966 37985 ft 352 kts 255°
2026-04-26 21:57 -29.31988 -57.81136 37983 ft 353 kts 255°
2026-04-26 21:57 -29.33912 -57.86297 37985 ft 352 kts 256°
2026-04-26 21:58 -29.35826 -57.91442 37996 ft 353 kts 256°
2026-04-26 21:58 -29.37750 -57.96619 38001 ft 353 kts 255°
2026-04-26 21:59 -29.39667 -58.01789 37996 ft 352 kts 256°
2026-04-26 21:59 -29.41578 -58.06961 37995 ft 351 kts 256°
2026-04-26 22:00 -29.43295 -58.12167 37996 ft 349 kts 257°
2026-04-26 22:00 -29.45000 -58.17402 38000 ft 350 kts 257°
2026-04-26 22:01 -29.46706 -58.22656 37998 ft 349 kts 257°
2026-04-26 22:01 -29.48399 -58.27888 38004 ft 349 kts 257°
2026-04-26 22:02 -29.49804 -58.32239 38004 ft 349 kts 257°
2026-04-26 22:02 -29.51771 -58.38332 38003 ft 350 kts 257°
2026-04-26 22:03 -29.53456 -58.43565 38007 ft 350 kts 257°
2026-04-26 22:03 -29.55150 -58.48826 38011 ft 349 kts 257°
2026-04-26 22:04 -29.56825 -58.54036 38009 ft 350 kts 258°
2026-04-26 22:04 -29.58513 -58.59306 38010 ft 349 kts 257°
2026-04-26 22:05 -29.60202 -58.64581 38014 ft 350 kts 257°
2026-04-26 22:05 -29.61886 -58.69851 38014 ft 349 kts 257°
2026-04-26 22:06 -29.63559 -58.75088 38017 ft 349 kts 257°
2026-04-26 22:06 -29.65243 -58.80361 38009 ft 349 kts 258°
2026-04-26 22:07 -29.66918 -58.85629 38023 ft 349 kts 258°
2026-04-26 22:07 -29.68318 -58.90004 38017 ft 350 kts 257°
2026-04-26 22:08 -29.70338 -58.96079 38023 ft 350 kts 257°
2026-04-26 22:08 -29.72074 -59.01304 38027 ft 350 kts 257°
2026-04-26 22:09 -29.73811 -59.06555 38025 ft 350 kts 257°
2026-04-26 22:09 -29.75543 -59.11782 38031 ft 350 kts 257°
2026-04-26 22:10 -29.77266 -59.17001 38024 ft 351 kts 257°
2026-04-26 22:10 -29.78987 -59.22227 38027 ft 350 kts 256°
2026-04-26 22:11 -29.80710 -59.27454 38028 ft 351 kts 257°
2026-04-26 22:11 -29.82449 -59.32751 38030 ft 350 kts 256°
2026-04-26 22:12 -29.84168 -59.37982 38038 ft 351 kts 257°
2026-04-26 22:12 -29.85884 -59.43216 38036 ft 350 kts 257°
2026-04-26 22:13 -29.87600 -59.48464 38038 ft 351 kts 257°
2026-04-26 22:13 -29.89323 -59.53742 38042 ft 351 kts 257°
2026-04-26 22:14 -29.91034 -59.58990 38043 ft 351 kts 257°
2026-04-26 22:14 -29.92747 -59.64256 38039 ft 351 kts 256°
2026-04-26 22:15 -29.94462 -59.69521 38050 ft 351 kts 257°
2026-04-26 22:15 -29.96170 -59.74788 38050 ft 351 kts 257°
2026-04-26 22:16 -29.97886 -59.80082 38047 ft 351 kts 257°
2026-04-26 22:16 -29.99590 -59.85345 38048 ft 351 kts 257°
2026-04-26 22:17 -30.01303 -59.90653 38055 ft 351 kts 257°
2026-04-26 22:17 -30.03005 -59.95930 38054 ft 351 kts 257°
2026-04-26 22:18 -30.04702 -60.01203 38057 ft 351 kts 257°
2026-04-26 22:18 -30.06399 -60.06484 38058 ft 351 kts 257°
2026-04-26 22:19 -30.08100 -60.11785 38064 ft 352 kts 257°
2026-04-26 22:19 -30.09803 -60.17099 38063 ft 352 kts 257°
2026-04-26 22:20 -30.11221 -60.21525 38065 ft 352 kts 257°
2026-04-26 22:20 -30.13205 -60.27736 38071 ft 352 kts 256°
2026-04-26 22:21 -30.14903 -60.33036 38072 ft 352 kts 257°
2026-04-26 22:21 -30.16590 -60.38344 38068 ft 351 kts 257°
2026-04-26 22:22 -30.18275 -60.43641 38058 ft 351 kts 257°
2026-04-26 22:22 -30.19953 -60.48930 38059 ft 349 kts 257°
2026-04-26 22:23 -30.21617 -60.54186 38062 ft 350 kts 257°
2026-04-26 22:23 -30.23295 -60.59490 38063 ft 350 kts 257°
2026-04-26 22:24 -30.24961 -60.64755 38062 ft 349 kts 257°
2026-04-26 22:24 -30.26636 -60.70052 38065 ft 350 kts 257°
2026-04-26 22:25 -30.28297 -60.75341 38065 ft 350 kts 257°
2026-04-26 22:25 -30.29968 -60.80647 38067 ft 350 kts 257°
2026-04-26 22:26 -30.31623 -60.85913 38068 ft 350 kts 257°
2026-04-26 22:26 -30.33275 -60.91184 38067 ft 351 kts 257°
2026-04-26 22:27 -30.34944 -60.96526 38073 ft 350 kts 256°
2026-04-26 22:27 -30.36606 -61.01837 38067 ft 350 kts 257°
2026-04-26 22:28 -30.38271 -61.07172 38077 ft 351 kts 256°
2026-04-26 22:28 -30.39934 -61.12491 38075 ft 351 kts 256°
2026-04-26 22:29 -30.41605 -61.17853 38081 ft 352 kts 256°
2026-04-26 22:29 -30.43271 -61.23197 38086 ft 353 kts 256°
2026-04-26 22:30 -30.44931 -61.28527 38083 ft 353 kts 256°
2026-04-26 22:30 -30.46594 -61.33881 38082 ft 352 kts 256°
2026-04-26 22:31 -30.48263 -61.39263 38091 ft 352 kts 256°
2026-04-26 22:31 -30.49928 -61.44618 38087 ft 352 kts 256°
2026-04-26 22:32 -30.51575 -61.49960 38086 ft 353 kts 256°
2026-04-26 22:32 -30.53234 -61.55333 38088 ft 353 kts 256°
2026-04-26 22:33 -30.55699 -61.63350 38096 ft 353 kts 255°
2026-04-26 22:34 -30.57350 -61.68724 38095 ft 353 kts 256°
2026-04-26 22:34 -30.58984 -61.74118 38097 ft 353 kts 256°
2026-04-26 22:35 -30.60625 -61.79514 38095 ft 353 kts 256°
2026-04-26 22:35 -30.62248 -61.84879 38099 ft 353 kts 256°
2026-04-26 22:36 -30.63876 -61.90259 38098 ft 353 kts 256°
2026-04-26 22:36 -30.65499 -61.95634 38100 ft 353 kts 256°
2026-04-26 22:37 -30.67125 -62.01014 38098 ft 354 kts 256°
2026-04-26 22:37 -30.68742 -62.06388 38100 ft 355 kts 256°
2026-04-26 22:38 -30.70366 -62.11796 38099 ft 354 kts 256°
2026-04-26 22:38 -30.71987 -62.17204 38103 ft 354 kts 256°
2026-04-26 22:39 -30.73609 -62.22620 38101 ft 354 kts 255°
2026-04-26 22:39 -30.75228 -62.28017 38104 ft 354 kts 255°
2026-04-26 22:40 -30.76843 -62.33421 38108 ft 356 kts 255°
2026-04-26 22:40 -30.78469 -62.38876 38107 ft 356 kts 256°
2026-04-26 22:41 -30.80094 -62.44307 37678 ft 359 kts 256°
2026-04-26 22:41 -30.80904 -62.47010 36966 ft 360 kts 255°
2026-04-26 22:41 -30.81727 -62.49763 36133 ft 363 kts 255°
2026-04-26 22:41 -30.82551 -62.52529 35268 ft 366 kts 255°
2026-04-26 22:42 -30.83388 -62.55331 34463 ft 367 kts 255°
2026-04-26 22:42 -30.84229 -62.58141 33676 ft 368 kts 255°
2026-04-26 22:42 -30.85074 -62.60972 32760 ft 373 kts 255°
2026-04-26 22:42 -30.85921 -62.63836 31735 ft 380 kts 253°
2026-04-26 22:43 -30.86798 -62.66788 30613 ft 390 kts 253°
2026-04-26 22:43 -30.87695 -62.69807 29593 ft 395 kts 253°
2026-04-26 22:43 -30.88589 -62.72803 28840 ft 393 kts 253°
2026-04-26 22:43 -30.89502 -62.75866 28080 ft 392 kts 253°
2026-04-26 22:44 -30.90393 -62.78860 27384 ft 388 kts 252°
2026-04-26 22:44 -30.91271 -62.81813 26789 ft 384 kts 252°
2026-04-26 22:44 -30.92128 -62.84697 26245 ft 378 kts 252°
2026-04-26 22:44 -30.92982 -62.87574 25709 ft 373 kts 252°
2026-04-26 22:45 -30.93813 -62.90385 25206 ft 368 kts 252°
2026-04-26 22:45 -30.94640 -62.93182 24692 ft 364 kts 252°
2026-04-26 22:45 -30.95462 -62.95956 24204 ft 359 kts 252°
2026-04-26 22:45 -30.96271 -62.98694 23724 ft 355 kts 252°
2026-04-26 22:46 -30.97071 -63.01404 23245 ft 351 kts 252°
2026-04-26 22:46 -30.97847 -63.04047 22765 ft 347 kts 252°
2026-04-26 22:46 -30.98629 -63.06705 22268 ft 344 kts 252°
2026-04-26 22:46 -30.99397 -63.09308 21786 ft 341 kts 252°
2026-04-26 22:47 -31.00164 -63.11924 21298 ft 339 kts 252°
2026-04-26 22:47 -31.00927 -63.14523 20810 ft 337 kts 252°
2026-04-26 22:47 -31.01676 -63.17077 20323 ft 334 kts 252°
2026-04-26 22:47 -31.02351 -63.19665 19862 ft 331 kts 255°
2026-04-26 22:48 -31.02918 -63.22266 19404 ft 329 kts 256°
2026-04-26 22:48 -31.03465 -63.24837 18949 ft 326 kts 256°
2026-04-26 22:48 -31.04008 -63.27390 18485 ft 324 kts 256°
2026-04-26 22:48 -31.04542 -63.29920 18022 ft 323 kts 256°
2026-04-26 22:49 -31.05074 -63.32438 17567 ft 321 kts 256°
2026-04-26 22:49 -31.05606 -63.34964 17098 ft 319 kts 256°
2026-04-26 22:49 -31.06134 -63.37468 16645 ft 318 kts 257°
2026-04-26 22:49 -31.06572 -63.39990 16203 ft 316 kts 260°
2026-04-26 22:50 -31.06846 -63.42506 15784 ft 313 kts 264°
2026-04-26 22:50 -31.06964 -63.45009 15386 ft 311 kts 267°
2026-04-26 22:50 -31.07017 -63.47507 14978 ft 309 kts 267°
2026-04-26 22:50 -31.07065 -63.50016 14545 ft 306 kts 267°
2026-04-26 22:51 -31.07111 -63.52490 14120 ft 305 kts 267°
2026-04-26 22:51 -31.07157 -63.54925 13706 ft 303 kts 267°
2026-04-26 22:51 -31.07202 -63.57379 13306 ft 301 kts 267°
2026-04-26 22:51 -31.07244 -63.59793 12904 ft 299 kts 267°
2026-04-26 22:52 -31.07287 -63.62236 12489 ft 297 kts 268°
2026-04-26 22:52 -31.07328 -63.64640 12089 ft 296 kts 268°
2026-04-26 22:52 -31.07369 -63.67058 11667 ft 295 kts 268°
2026-04-26 22:52 -31.07409 -63.69410 11277 ft 293 kts 268°
2026-04-26 22:53 -31.07448 -63.71794 10894 ft 291 kts 269°
2026-04-26 22:53 -31.07485 -63.74121 10591 ft 285 kts 269°
2026-04-26 22:53 -31.07520 -63.76383 10453 ft 273 kts 269°
2026-04-26 22:53 -31.07554 -63.78566 10268 ft 264 kts 269°
2026-04-26 22:54 -31.07586 -63.80671 10154 ft 251 kts 269°
2026-04-26 22:54 -31.07618 -63.82657 10065 ft 242 kts 269°
2026-04-26 22:54 -31.07648 -63.84607 9835 ft 240 kts 269°
2026-04-26 22:54 -31.07676 -63.86559 9485 ft 241 kts 269°
2026-04-26 22:55 -31.07706 -63.88520 9155 ft 241 kts 269°
2026-04-26 22:55 -31.07734 -63.90466 8827 ft 241 kts 268°
2026-04-26 22:55 -31.07761 -63.92429 8484 ft 242 kts 268°
2026-04-26 22:55 -31.07789 -63.94391 8141 ft 243 kts 268°
2026-04-26 22:56 -31.07818 -63.96368 7809 ft 243 kts 267°
2026-04-26 22:56 -31.07847 -63.98321 7489 ft 243 kts 267°
2026-04-26 22:56 -31.07874 -64.00281 7174 ft 243 kts 267°
2026-04-26 22:56 -31.07899 -64.02251 6908 ft 240 kts 266°
2026-04-26 22:57 -31.07925 -64.04194 6718 ft 236 kts 266°
2026-04-26 22:57 -31.07949 -64.06063 6635 ft 224 kts 265°
2026-04-26 22:57 -31.07973 -64.07847 6539 ft 220 kts 265°
2026-04-26 22:57 -31.08006 -64.09635 6430 ft 218 kts 263°
2026-04-26 22:58 -31.08092 -64.11412 6174 ft 219 kts 263°
2026-04-26 22:58 -31.08185 -64.13177 6119 ft 219 kts 263°
2026-04-26 22:58 -31.08280 -64.14953 6061 ft 220 kts 263°
2026-04-26 22:58 -31.08372 -64.16721 5790 ft 222 kts 263°
2026-04-26 22:59 -31.08466 -64.18522 5427 ft 224 kts 262°
2026-04-26 22:59 -31.08872 -64.20245 5047 ft 220 kts 230°
2026-04-26 22:59 -31.10081 -64.21204 4837 ft 208 kts 191°
2026-04-26 22:59 -31.11532 -64.21240 4632 ft 207 kts 176°
2026-04-26 23:00 -31.12976 -64.21163 4421 ft 206 kts 178°
2026-04-26 23:00 -31.14386 -64.21121 4327 ft 196 kts 178°
2026-04-26 23:00 -31.15710 -64.21089 4236 ft 186 kts 179°
2026-04-26 23:00 -31.17005 -64.21066 4097 ft 180 kts 178°
2026-04-26 23:01 -31.18237 -64.21046 3875 ft 174 kts 178°
2026-04-26 23:01 -31.19429 -64.21027 3618 ft 170 kts 178°
2026-04-26 23:01 -31.20595 -64.21009 3373 ft 165 kts 177°
2026-04-26 23:01 -31.21740 -64.20991 3140 ft 159 kts 177°
2026-04-26 23:02 -31.22796 -64.20973 2941 ft 145 kts 177°
2026-04-26 23:02 -31.23769 -64.20956 2736 ft 135 kts 177°
2026-04-26 23:02 -31.24713 -64.20939 2595 ft 135 kts 177°
2026-04-26 23:02 -31.25654 -64.20918 2415 ft 134 kts 177°
2026-04-26 23:03 -31.26584 -64.20892 2210 ft 134 kts 178°
2026-04-26 23:03 -31.27523 -64.20911 2008 ft 133 kts 180°
2026-04-26 23:03 -31.28441 -64.20877 1818 ft 130 kts 175°
2026-04-26 23:03 -31.29344 -64.20858 1682 ft 128 kts 178°
2026-04-26 23:04 -31.30224 -64.20847 1620 ft 120 kts 178°
2026-04-26 23:04 -31.30943 -64.20834 1613 ft 79 kts 179°
2026-04-26 23:04 -31.31325 -64.20828 1613 ft 30 kts 178°
2026-04-26 23:04 -31.31416 -64.20844 1613 ft 9 kts 217°
2026-04-26 23:05 -31.31459 -64.20899 1613 ft 9 kts 244°
2026-04-26 23:05 -31.31465 -64.20966 1613 ft 7 kts 268°
2026-04-26 23:05 -31.31472 -64.21021 1613 ft 6 kts 242°
2026-04-26 23:05 -31.31502 -64.21062 1613 ft 6 kts 221°
2026-04-26 23:06 -31.31539 -64.21079 1613 ft 4 kts 205°
2026-04-26 23:06 -31.31559 -64.21108 1613 ft 5 kts 257°
2026-04-26 23:06 -31.31553 -64.21154 1613 ft 4 kts 281°
2026-04-26 23:06 -31.31552 -64.21175 1613 ft 0 kts 269°